STARLINK-32028, 60095

Orbit data source: Space-Track

STARLINK-32028, 60095 is a payload satellite owned by SpaceX/Seattle (US) in LEO that was launched on Sun, 23 Jun 2024 UTC via an FALCON 9 launch vehicle from the Air Force Eastern Test Range (AFETR). Payload-class satellites include a variety of spacecraft equipped with specific instruments for various scientific and technological missions. These include communications satellites like Starlink; space stations such as the ISS; scientific satellites like the Hubble; Earth observation satellites from companies like Planet Labs, Umbra, and HawkEye 360; GPS; miniature CubeSats for education and research; and military/defense satellites.

Loading next visibility...
Identifier
60095, 2024-117E
Orbit
LEO
Country
Flag of USUS
Related business
Manufacturer
SpaceX/Seattle
Mission
Operational Commercial Communications
Bus & Motor
STARLINK V2M, Unknown motor
Mass
730 kg wet, ~700 kg dry
Launch date (UTC)
2024-06-23 (2 years ago)
Launch vehicle
FALCON 9
Launch site
Air Force Eastern Test Range (AFETR)
Object type
Payload
Rocket body
Debris
Shape & HBR
Box + 2 Pan, 17.7 m
Radar Cross Section
33.884 m², Large (>1 m²)

Expand to show TLE details & history
Last TLE update: 1 day ago

TLE from 1 day ago
0 STARLINK-32028
1 60095U 24117E   26170.69490938 -.00000298  00000-0  20530-5 0  9994
2 60095  53.1606 283.3428 0001079  93.2049 266.9076 15.30197646112504
Epoch: 2026-06-19T16:40Z
TLE epoch observation values (Epoch: 2026-06-19T16:40:40.170Z)
Latitude
0.00004°
Longitude
125.25526°
Altitude
476.162 km
Speed
7.629 km/s
True Right ascension
18h 53m 22s
True Declination
0° 00' 00"
Sunlit
Object was in full shadow at epoch
Visualization orbit readout
Latitude
Unknown
Longitude
Unknown
Altitude
Unknown
Speed
Unknown
Apparent Right ascension
Unknown
Apparent Declination
Unknown
Sunlit
N/A
Visualization observer readout
Local Sidereal Time
08:32:32
Azimuth
Unknown
Elevation
Unknown
Doppler factor
Unknown
Orbital elements
Apogee altitude
476.218 km
Perigee altitude
474.739 km
Semi-major axis
6,853.615 km
Eccentricity
0.00011
Inclination
53.1606°
RAAN
283.3428°
Arg. of periapsis
93.2049°
True anomaly
266.89525°
Mean anomaly
266.9076°
Eccentric anomaly
266.90143°
Mean motion
3.82528 °/min
Orbital period
94.11 mins
BSTAR
0.000002053
Loading maneuver chart data...
Computing Atmospheric mass density...
Loading historical data...
Loading historical data...
Loading historical data...
Loading historical data...
Loading historical data...
Loading historical data...
Loading historical data...

Documentation

Showing up to 5 results
|